{"data":{"norad_id":55990,"intl_designator":"2023-042E","name":"STARLINK-5946","alt_names":[],"object_type":"PAYLOAD","status":"ACTIVE","operator":null,"country":"US","launch_date":"2023-03-24","launch_site_code":"AFETR","launch_vehicle":null,"mission":null,"orbit_class":"UNKNOWN","rcs_meters":null,"size_class":null,"mass_kg":null,"dimensions":null,"purposes":["comms"],"wikipedia_slug":null,"has_3d_model":false,"image_url":null,"decayed_at":null,"tle_current":{"epoch":"2026-09-20T19:35:44.762784Z","epoch_age_seconds":78861,"freshness":"FRESH","line1":"1 55990U 23042E   26263.81649031  .00000138  00000+0  14545-4 0  9994","line2":"2 55990  43.0041  37.4613 0001223 273.4851  86.5861 15.27584502192717","mean_motion":15.27584502,"eccentricity":0.0001223,"inclination_deg":43.0041,"raan_deg":37.4613,"arg_perigee_deg":273.4851,"mean_anomaly_deg":86.5861,"bstar":1.4545e-5,"rev_number":19271,"period_min":94.266470896678,"perigee_km":482.1964940543,"apogee_km":483.87473687605,"semimajor_km":6861.1726154652,"source":"CELESTRAK","updated_at":"2026-09-21T09:00:33.350212Z"}}}